Total_Precipitation_Accumulation
0.03 0.06 0.25 0.34 0.33 0.34 0.33 0.36 0.38 0.40 0.45 0.54 0.55 0.56 0.55 0.49 0.46 0.46 0.44 0.41 0.40 0.45 0.54 0.63 0.65 0.66 0.64 0.55 0.46 0.43 0.41 0.39 0.37 0.37 0.40 0.42 0.42 0.37 0.33 0.32 0.31 0.31 0.44
0.04 0.06 0.20 0.26 0.29 0.33 0.36 0.37 0.35 0.32 0.40 0.47 0.49 0.51 0.54 0.53 0.49 0.52 0.50 0.48 0.46 0.50 0.55 0.62 0.62 0.60 0.56 0.53 0.49 0.41 0.38 0.36 0.29 0.26 0.24 0.28 0.37 0.38 0.36 0.35 0.33 0.38 0.41
0.03 0.05 0.15 0.22 0.26 0.33 0.36 0.34 0.31 0.28 0.34 0.40 0.43 0.47 0.55 0.55 0.52 0.52 0.49 0.47 0.49 0.55 0.59 0.60 0.59 0.58 0.52 0.51 0.52 0.44 0.40 0.34 0.27 0.23 0.19 0.20 0.34 0.44 0.42 0.39 0.36 0.43 0.43
0.01 0.04 0.10 0.20 0.26 0.32 0.34 0.33 0.31 0.30 0.31 0.37 0.41 0.45 0.50 0.52 0.53 0.52 0.48 0.48 0.52 0.60 0.65 0.66 0.65 0.62 0.56 0.51 0.49 0.44 0.46 0.38 0.25 0.20 0.13 0.18 0.34 0.52 0.50 0.48 0.44 0.46 0.46
0.01 0.03 0.10 0.21 0.27 0.33 0.36 0.35 0.33 0.33 0.34 0.36 0.40 0.46 0.53 0.53 0.51 0.48 0.45 0.45 0.50 0.60 0.67 0.67 0.62 0.59 0.57 0.55 0.50 0.47 0.50 0.43 0.27 0.16 0.11 0.17 0.29 0.53 0.51 0.52 0.50 0.46 0.43
0.02 0.03 0.12 0.22 0.29 0.34 0.37 0.37 0.36 0.36 0.39 0.41 0.43 0.48 0.56 0.57 0.56 0.52 0.46 0.43 0.44 0.51 0.58 0.59 0.56 0.56 0.57 0.52 0.45 0.49 0.56 0.49 0.24 0.13 0.15 0.20 0.26 0.53 0.60 0.58 0.52 0.48 0.47
0.02 0.05 0.13 0.25 0.33 0.37 0.39 0.39 0.41 0.41 0.44 0.47 0.49 0.53 0.58 0.59 0.58 0.56 0.54 0.49 0.45 0.45 0.48 0.52 0.52 0.53 0.54 0.50 0.47 0.55 0.62 0.46 0.19 0.17 0.19 0.21 0.28 0.64 0.86 0.77 0.59 0.51 0.49
0.03 0.07 0.16 0.30 0.37 0.42 0.44 0.44 0.46 0.48 0.51 0.53 0.55 0.60 0.60 0.58 0.58 0.57 0.55 0.51 0.46 0.43 0.41 0.43 0.46 0.48 0.49 0.48 0.49 0.52 0.55 0.34 0.16 0.15 0.17 0.19 0.33 0.74 0.97 0.92 0.75 0.61 0.55
0.05 0.09 0.18 0.30 0.38 0.45 0.48 0.48 0.50 0.53 0.55 0.58 0.60 0.62 0.62 0.59 0.59 0.61 0.57 0.52 0.49 0.47 0.42 0.37 0.38 0.39 0.38 0.40 0.44 0.44 0.39 0.26 0.16 0.20 0.18 0.21 0.34 0.76 0.98 1.03 0.91 0.75 0.62
0.09 0.13 0.21 0.31 0.38 0.44 0.50 0.54 0.54 0.56 0.59 0.63 0.66 0.64 0.61 0.61 0.62 0.61 0.55 0.49 0.50 0.50 0.45 0.41 0.38 0.36 0.33 0.32 0.32 0.30 0.24 0.20 0.14 0.20 0.29 0.27 0.33 0.70 0.96 0.98 0.93 0.86 0.72
0.15 0.19 0.27 0.36 0.43 0.48 0.54 0.58 0.63 0.67 0.72 0.74 0.72 0.69 0.70 0.67 0.63 0.55 0.47 0.47 0.50 0.52 0.46 0.44 0.42 0.39 0.36 0.30 0.26 0.22 0.17 0.13 0.14 0.24 0.29 0.32 0.47 0.84 1.06 1.03 1.00 0.94 0.84
0.17 0.22 0.29 0.40 0.46 0.55 0.59 0.68 0.78 0.79 0.80 0.79 0.69 0.66 0.68 0.63 0.60 0.55 0.50 0.49 0.53 0.53 0.51 0.49 0.48 0.46 0.42 0.33 0.32 0.28 0.18 0.14 0.14 0.16 0.20 0.26 0.51 0.94 1.17 1.16 1.17 1.10 0.97
0.14 0.20 0.29 0.42 0.52 0.57 0.61 0.70 0.79 0.82 0.81 0.81 0.75 0.70 0.68 0.70 0.67 0.64 0.59 0.61 0.60 0.57 0.56 0.56 0.59 0.54 0.49 0.45 0.44 0.38 0.28 0.24 0.20 0.16 0.16 0.21 0.36 0.68 1.04 1.19 1.25 1.26 1.22
0.18 0.24 0.33 0.45 0.54 0.57 0.59 0.66 0.72 0.74 0.73 0.74 0.73 0.75 0.76 0.75 0.71 0.68 0.65 0.67 0.68 0.66 0.62 0.61 0.58 0.55 0.52 0.47 0.45 0.43 0.40 0.38 0.29 0.23 0.17 0.18 0.24 0.34 0.60 0.91 1.17 1.30 1.38
0.20 0.27 0.39 0.47 0.55 0.62 0.65 0.69 0.73 0.70 0.66 0.68 0.72 0.76 0.71 0.66 0.60 0.55 0.54 0.54 0.50 0.49 0.49 0.51 0.53 0.52 0.50 0.47 0.42 0.39 0.39 0.41 0.37 0.31 0.26 0.25 0.23 0.26 0.37 0.57 0.87 1.18 1.40
0.24 0.30 0.43 0.52 0.59 0.67 0.66 0.68 0.70 0.69 0.66 0.69 0.68 0.66 0.65 0.61 0.56 0.50 0.47 0.47 0.44 0.40 0.37 0.37 0.38 0.40 0.41 0.39 0.35 0.31 0.32 0.35 0.36 0.34 0.33 0.34 0.29 0.27 0.31 0.43 0.64 0.95 1.30
0.26 0.34 0.45 0.56 0.68 0.74 0.72 0.73 0.76 0.74 0.71 0.69 0.68 0.64 0.64 0.61 0.58 0.56 0.50 0.46 0.44 0.44 0.43 0.41 0.41 0.39 0.36 0.34 0.31 0.29 0.28 0.28 0.32 0.34 0.36 0.37 0.38 0.35 0.34 0.40 0.52 0.76 1.14
0.29 0.40 0.49 0.61 0.76 0.83 0.81 0.81 0.79 0.79 0.80 0.76 0.72 0.69 0.65 0.61 0.57 0.57 0.55 0.51 0.50 0.52 0.52 0.51 0.46 0.44 0.40 0.36 0.34 0.31 0.30 0.28 0.26 0.29 0.34 0.35 0.36 0.36 0.35 0.38 0.49 0.69 0.96
0.29 0.40 0.51 0.61 0.76 0.88 0.93 0.90 0.88 0.82 0.84 0.84 0.78 0.72 0.69 0.63 0.58 0.56 0.55 0.56 0.59 0.63 0.61 0.57 0.53 0.47 0.44 0.41 0.39 0.37 0.34 0.31 0.30 0.30 0.31 0.35 0.37 0.35 0.35 0.37 0.43 0.54 0.75
0.29 0.39 0.51 0.64 0.81 0.93 1.10 1.12 1.09 1.01 0.90 0.88 0.85 0.74 0.68 0.67 0.63 0.61 0.59 0.59 0.64 0.68 0.66 0.63 0.55 0.49 0.46 0.46 0.47 0.44 0.38 0.33 0.31 0.31 0.30 0.32 0.35 0.36 0.36 0.40 0.44 0.43 0.49
0.37 0.43 0.51 0.66 0.82 0.99 1.12 1.20 1.16 1.10 0.95 0.89 0.87 0.82 0.73 0.69 0.71 0.71 0.65 0.66 0.65 0.67 0.64 0.62 0.62 0.59 0.53 0.50 0.56 0.57 0.50 0.40 0.34 0.30 0.31 0.33 0.35 0.40 0.47 0.52 0.58 0.55 0.48
0.43 0.46 0.50 0.62 0.74 0.92 1.04 1.09 1.16 1.10 1.02 0.92 0.89 0.87 0.79 0.70 0.73 0.80 0.74 0.69 0.67 0.66 0.68 0.69 0.67 0.67 0.66 0.59 0.60 0.66 0.61 0.55 0.43 0.33 0.31 0.33 0.37 0.45 0.57 0.62 0.68 0.70 0.63
0.45 0.49 0.54 0.58 0.66 0.78 1.03 1.25 1.37 1.41 1.29 1.13 1.01 0.92 0.82 0.74 0.68 0.76 0.80 0.75 0.71 0.69 0.66 0.65 0.65 0.64 0.67 0.61 0.57 0.75 0.81 0.60 0.39 0.30 0.27 0.29 0.30 0.33 0.37 0.45 0.53 0.59 0.66
0.44 0.54 0.63 0.61 0.68 0.78 0.96 1.25 1.42 1.46 1.34 1.08 0.93 0.90 0.87 0.81 0.73 0.70 0.78 0.80 0.78 0.76 0.71 0.66 0.64 0.64 0.69 0.72 0.62 0.57 0.61 0.60 0.60 0.42 0.27 0.25 0.25 0.26 0.25 0.28 0.33 0.40 0.51
0.44 0.56 0.68 0.73 0.78 0.87 0.95 1.13 1.36 1.47 1.39 1.25 1.11 1.00 0.93 0.91 0.86 0.78 0.75 0.79 0.80 0.80 0.79 0.74 0.69 0.70 0.72 0.76 0.73 0.63 0.55 0.48 0.49 0.58 0.41 0.29 0.28 0.26 0.26 0.26 0.29 0.30 0.35
0.42 0.51 0.67 0.79 0.82 0.94 0.99 1.10 1.23 1.40 1.50 1.47 1.36 1.22 1.08 1.01 0.96 0.93 0.81 0.78 0.80 0.81 0.82 0.79 0.73 0.72 0.74 0.74 0.73 0.70 0.70 0.67 0.54 0.57 0.52 0.37 0.33 0.31 0.32 0.33 0.33 0.32 0.33